Regional Weather Roundup
Issued by NWS

Home | Current Version | Previous Version | Graphics & Text | Print | Product List | Glossary Off
Versions: 1 2 3 4 5 6 7 8 9 10 11 12 13 14 15 16 17 18 19 20 21 22 23 24 25 26 27 28 29 30 31 32 33 34 35 36 37 38 39 40 41 42 43 44 45 46 47 48 49 50

000
ASUS43 KMKX 020411
RWRWI

WISCONSIN REGIONAL WEATHER ROUNDUP
NATIONAL WEATHER SERVICE MILWAUKEE/SULLIVAN WI
1000 PM CST SUN MAR 01 2015

NOTE: "FAIR" INDICATES FEW OR NO CLOUDS BELOW 12,000 FEET WITH NO
SIGNIFICANT WEATHER AND/OR OBSTRUCTIONS TO VISIBILITY.

WIZ001-002-006>008-014>016-023>028-020500-
NORTHWEST WISCONSIN

CITY           SKY/WX    TMP DP  RH WIND       PRES   REMARKS
SUPERIOR ARPT  PTCLDY    18   8  64 NW16      30.28R WCI   3
ASHLAND        CLOUDY    21  10  62 W10       30.23R WCI  10
HAYWARD        CLEAR     18   7  62 VRB7      30.23R WCI   9
SIREN          CLEAR     17  10  71 NW8       30.29R WCI   7
CUMBERLAND     FLURRIES  21  10  63 NW12G21   30.25R WCI   9
RICE LAKE      CLEAR     20  10  65 W9        30.27R WCI   9
CHETEK         CLEAR     20  10  64 W6        30.26R WCI  12
LADYSMITH      CLEAR     14   7  72 W9        30.24R WCI   2
EAU CLAIRE     PTCLDY    15   6  67 SW7       30.28R WCI   5
MENOMONIE      MOCLDY    20  11  67 W7        30.28R WCI  11
NEW RICHMOND   MOCLDY    21  13  71 NW13      30.30R WCI   9
OSCEOLA        CLEAR     21  11  65 W16       30.34R WCI   7
$$

WIZ003>005-009-010-017-018-020500-
NORTH CENTRAL WISCONSIN

CITY           SKY/WX    TMP DP  RH WIND       PRES   REMARKS
MANITOWISH WTR CLOUDY    17   6  60 W13       30.13R WCI   4
ARBOR VITAE    PTCLDY    18   6  59 W7        30.13R WCI   8
WOODRUFF       PTCLDY    18   6  59 W7        30.13R WCI   8
RHINELANDER    PTCLDY    14   3  61 W14       30.14R WCI  -1
EAGLE RIVER    PTCLDY    17   3  54 W9        30.11R WCI   5
LAND O LAKES   PTCLDY    16   4  58 W6        30.11R WCI   8
PHILLIPS       CLEAR     15   5  65 W3        30.17R
TOMAHAWK       FAIR      15   5  64 CALM      30.18R
MEDFORD        MOCLDY    16   6  66 W8        30.19R WCI   5
MERRILL        CLEAR     13   3  65 W6        30.19R WCI   4
$$

WIZ029-030-035-036-043>047-020500-
CENTRAL WISCONSIN

CITY           SKY/WX    TMP DP  RH WIND       PRES   REMARKS
WAUSAU         PTCLDY    16   6  65 NW8       30.20R WCI   5
MOSINEE        NOT AVBL
MARSHFIELD     MOCLDY    15   6  67 W7        30.23R WCI   5
STEVENS POINT  MOCLDY    16   6  64 W8        30.24R WCI   5
WAUPACA        CLEAR     21   8  56 W10G18    30.24R WCI  10
WAUTOMA        CLEAR     18   6  59 W10       30.26R WCI   6
WISC RAPIDS    PTCLDY    16   5  62 W6        30.26R WCI   7
CAMP DOUGLAS   CLEAR     18  10  72 W8        30.27S WCI   7
$$

WIZ011>013-019>022-031-037>040-048>050-020500-
NORTHEAST WISCONSIN

CITY           SKY/WX    TMP DP  RH WIND       PRES   REMARKS
ANTIGO         CLEAR     13   3  64 W10       30.16R WCI   0
SHAWANO        CLEAR     19   8  60 W7        30.22R WCI  10
OCONTO         CLEAR     18   8  64 W12       30.20R WCI   5
STURGEON BAY   MOCLDY    19   9  63 W14G20    30.20R WCI   6
GREEN BAY      CLEAR     19   9  65 W9        30.23R WCI   8
MANITOWOC      CLEAR     20  12  71 W10       30.23R WCI   9
APPLETON       CLEAR     18   7  62 W9        30.23R WCI   6
CLINTONVILLE   CLEAR     19   7  58 W9        30.22R WCI   9
OSHKOSH        CLEAR     19   6  57 W7        30.25R WCI  10
$$

WIZ032>034-041-042-053>061-020500-
SOUTHWEST WISCONSIN

CITY           SKY/WX    TMP DP  RH WIND       PRES   REMARKS
LA CROSSE      CLEAR     18   8  65 S6        30.32R WCI  10
SPARTA         CLEAR     17   8  68 SW5       30.30S WCI  10
VIROQUA        PTCLDY    14   8  76 SW7       30.27S WCI   4
BOSCOBEL       CLEAR     15   7  70 SW3       30.35R
PRAIRIE DU CHI CLEAR     18   7  63 NW5       30.36R WCI  11
PLATTEVILLE    CLEAR     12   6  77 S7        30.33S WCI   2
$$

WIZ056-057-062-063-064-067-068-020500-
SOUTH CENTRAL WISCONSIN

CITY           SKY/WX    TMP DP  RH WIND       PRES   REMARKS
REEDSBURG      CLEAR     17   7  64 W6        30.29S WCI   9
BARABOO/DELLS  CLEAR     16   5  62 SW6       30.28R WCI   7
LONE ROCK      CLEAR     17   6  62 W7        30.33R WCI   8
MINERAL POINT  CLEAR     18   9  68 W3        30.30S
MADISON        CLEAR     18   6  59 VRB3      30.30R
MIDDLETON      CLEAR     19   7  58 W8        30.31R WCI   9
WATERTOWN      CLEAR     19   8  62 W5        30.29R WCI  12
MONROE         CLEAR     18  10  73 W15       30.31R WCI   3
JANESVILLE     CLEAR     19   9  63 W9        30.32R WCI   9
$$

WIZ051-052-058>065-066-070>072-020500-
SOUTHEAST WISCONSIN

CITY           SKY/WX    TMP DP  RH WIND       PRES   REMARKS
MILWAUKEE      CLEAR     23   9  55 W15G25    30.28R WCI  10
WAUKESHA       CLEAR     19   9  63 W14       30.29R WCI   6
MILWAUKEE/TIMM CLEAR     21   9  58 W18G24    30.28R WCI   6
RACINE         CLEAR     21  11  65 W10       30.30R WCI  10
BURLINGTON     CLEAR     17   7  65 W12       30.30R WCI   4
KENOSHA        CLEAR     20  11  68 W18       30.29R WCI   5
FOND DU LAC    CLEAR     20   5  52 W9        30.26R WCI   9
SHEBOYGAN      CLEAR     21   7  54 W14       30.24R WCI   8
WEST BEND      CLEAR     21   9  58 W15G21    30.26R WCI   8
JUNEAU         CLEAR     19   7  60 W7        30.28R WCI   9
$$

LSZ147-162-020500-
LAKE SUPERIOR

STATION/POSITION TIME  TEMP    WIND        PRES    WAVE
                       AIR SEA DIR/SP/G            HT/PER
                 (UTC) (F)     (DEG/KT/KT) (MB)    (FT/S)
DEVILS ISLAND    0400   21     290/ 25/ 28 1024.3R
PORT WING        0300   23     290/ 22     1023.4R
SAXON HARBOR     0300   23     260/  4/ 10 1022.0
$$

LMZ867-665-643>646-020500-
LAKE MICHIGAN

STATION/POSITION TIME  TEMP    WIND        PRES    WAVE
                       AIR SEA DIR/SP/G            HT/PER
                 (UTC) (F)     (DEG/KT/KT) (MB)    (FT/S)
NORTHPORT PIER   0302   20     250/  8/ 17 1021.0R
SISTER BAY       0343   18     260/ 11/ 12   N/A
KEWAUNEE LAKESHO 0300   20     270/  7/ 10 1021.6R
SHEBOYGAN LAKESH 0400   23     280/ 14/ 18 1025.7R
PORT WASHINGTON  0300   25     280/  7/ 10 1024.7R
MILWAUKEE LAKESH 0300   25     280/ 13/ 19   N/A
KENOSHA   LAKESH 0400   21     270/ 14/ 20 1025.7R
$$

TC  - TEMPERATURE IN CELSIUS
VSB - VISIBILITY IN STATUTE MILES
WCI - WIND CHILL INDEX
HX  - HEAT INDEX




USA.gov is the U.S. government's official web portal to all federal, state and local government web resources and services.